Desert Center, CA

1:58 AM PST on December 08, 2016 (GMT -0800)
Blythe

Weather History for KBLH - August, 2012

Change the Weather History Date:

Thursday, August 2, 2012

  Actual Average Record
Temperature  
Mean Temperature 92 °F -  
Max Temperature 104 °F 106 °F 117 °F (1995)
Min Temperature 82 °F 80 °F 71 °F (1976)
Cooling Degree Days 27    
Growing Degree Days 42 (Base 50)    
Moisture  
Dew Point 67 °F    
Average Humidity 45    
Maximum Humidity 74    
Minimum Humidity 27    
Precipitation  
Precipitation 0.00 in - - ()
Sea Level Pressure  
Sea Level Pressure 29.80 in    
Wind  
Wind Speed 5 mph (SW)    
Max Wind Speed 14 mph    
Max Gust Speed -    
Visibility 10 miles    
Events      
Averages and records for this station are not official NWS values.
T = Trace of Precipitation, MM = Missing Value Source: NWS Daily Summary

Daily Weather History Graph

Daily Weather History Graph

Search for Another Location

Airport or City:

Trip Planner

Search our weather history database for the weather conditions in past years. The results will help you decide how hot, cold, wet, or windy it might be!

Date:

Astronomy

Aug. 02, 2012 Rise Set
Actual Time 5:52 AM PDT 7:37 PM PDT
Civil Twilight 5:25 AM PDT 8:04 PM PDT
Nautical Twilight 4:52 AM PDT 8:37 PM PDT
Astronomical Twilight 4:17 AM PDT 9:11 PM PDT
Moon 7:52 PM PDT (8/2) 6:29 AM PDT (8/2)
Length of Visible Light 14h 39m
Length of Day
13h 45m
Waxing Gibbous, 99% of the Moon is Illuminated
Aug 2
Waxing Gibbous
Aug 9
Last Quarter
Aug 17
New
Aug 24
First Quarter
Aug 31
Full

Hourly Weather History & Observations

Time (PDT) Temp. Heat Index Dew Point Humidity Pressure Visibility Wind Dir Wind Speed Gust Speed Precip Events Conditions
12:52 AM 87.1 °F 92.0 °F 70.0 °F 57% 29.85 in 10.0 mi NW 6.9 mph - N/A   Clear
1:52 AM 86.0 °F 93.0 °F 73.0 °F 65% 29.84 in 10.0 mi West 8.1 mph - N/A   Clear
2:52 AM 84.9 °F 90.1 °F 71.1 °F 63% 29.84 in 10.0 mi WNW 4.6 mph - N/A   Clear
3:52 AM 84.9 °F 90.1 °F 71.1 °F 63% 29.84 in 10.0 mi Calm Calm - N/A   Clear
4:52 AM 82.9 °F 88.0 °F 72.0 °F 69% 29.84 in 10.0 mi NW 4.6 mph - N/A   Clear
5:52 AM 82.0 °F 86.7 °F 72.0 °F 71% 29.85 in 10.0 mi WSW 8.1 mph - N/A   Clear
6:52 AM 82.9 °F 89.4 °F 73.9 °F 74% 29.86 in 10.0 mi WSW 4.6 mph - N/A   Clear
7:52 AM 87.1 °F 92.0 °F 70.0 °F 57% 29.88 in 10.0 mi NNW 3.5 mph - N/A   Clear
8:52 AM 91.9 °F 95.4 °F 66.9 °F 44% 29.88 in 10.0 mi North 5.8 mph - N/A   Clear
9:52 AM 93.0 °F 97.9 °F 69.1 °F 45% 29.87 in 10.0 mi Calm Calm - N/A   Clear
10:52 AM 96.1 °F 101.6 °F 69.1 °F 41% 29.87 in 10.0 mi Variable 3.5 mph - N/A   Clear
11:52 AM 97.0 °F 99.3 °F 64.0 °F 34% 29.85 in 10.0 mi Calm Calm - N/A   Clear
12:52 PM 99.0 °F 101.7 °F 64.0 °F 32% 29.83 in 10.0 mi SE 3.5 mph - N/A   Clear
1:52 PM 100.9 °F 102.1 °F 61.0 °F 27% 29.81 in 10.0 mi Variable 3.5 mph - N/A   Clear
2:52 PM 102.0 °F 104.6 °F 63.0 °F 28% 29.78 in 10.0 mi South 6.9 mph - N/A   Clear
3:52 PM 102.0 °F 104.6 °F 63.0 °F 28% 29.75 in 10.0 mi SW 5.8 mph - N/A   Clear
4:52 PM 102.9 °F 105.5 °F 63.0 °F 27% 29.72 in 10.0 mi Calm Calm - N/A   Clear
5:52 PM 102.0 °F 103.9 °F 62.1 °F 27% 29.70 in 10.0 mi SSE 6.9 mph - N/A   Clear
6:52 PM 99.0 °F 102.3 °F 64.9 °F 33% 29.70 in 10.0 mi ESE 13.8 mph - N/A   Clear
7:52 PM 95.0 °F 99.0 °F 66.9 °F 40% 29.70 in 10.0 mi ESE 8.1 mph - N/A   Clear
8:52 PM 93.9 °F 98.6 °F 68.0 °F 43% 29.73 in 10.0 mi South 3.5 mph - N/A   Clear
9:52 PM 95.0 °F 99.0 °F 66.9 °F 40% 29.73 in 10.0 mi SSW 3.5 mph - N/A   Clear
11:52 PM 95.0 °F 95.2 °F 61.0 °F 32% 29.74 in 10.0 mi SSW 3.5 mph - N/A   Clear